Location: Unspecified
(0.0000°N, 0.0000°E)
Time: 23:16:25
(UTC+00:00)

S-56A Canister/Altair - Pass Details

Date: 05 October 2020
Orbit: 633 x 2499 km, 38.9° (Epoch: 28 October)

Event Time Altitude Azimuth Distance (km) Brightness Sun altitude
Rises 22:03:29 0° 294° (WNW) 4,806 11.9 -63.4°
Enters shadow 22:05:59 - 289° (WNW) 3,993 11.4 -64.0°
Reaches altitude 10° 22:07:35 10° 284° (WNW) 3,482 - -64.4°
Maximum altitude 22:14:36 30° 227° (SW) 1,809 - -66.1°
Drops below altitude 10° 22:19:43 10° 166° (SSE) 2,484 - -67.3°
Sets 22:22:10 0° 154° (SSE) 3,248 - -67.9°
